Time,TemperatureF,DewpointF,PressureIn,WindDirection,WindDirectionDegrees,WindSpeedMPH,WindSpeedGustMPH,Humidity,HourlyPrecipIn,Conditions,Clouds,dailyrainin,SolarRadiationWatts/m^2,SoftwareType,DateUTC
2013-09-11 00:44:00,64.0,63.0,-100.00,WSW,250,2.0,3.0,98,0.00,,,0.00,0.000000,,2013-09-11 04:44:00,
2013-09-11 00:54:00,64.0,63.0,-100.00,WSW,250,2.0,3.0,98,0.00,,,0.00,0.000000,,2013-09-11 04:54:00,
2013-09-11 01:03:00,64.0,63.0,-100.00,WSW,250,2.0,3.0,98,0.00,,,0.00,0.000000,,2013-09-11 05:03:00,
2013-09-11 01:43:00,63.0,62.0,-100.00,WSW,251,1.0,3.0,98,0.00,,,0.00,0.000000,,2013-09-11 05:43:00,
2013-09-11 01:53:00,63.0,62.0,-100.00,WSW,251,1.0,3.0,98,0.00,,,0.00,0.000000,,2013-09-11 05:53:00,
2013-09-11 02:02:00,63.0,62.0,-100.00,WSW,251,1.0,3.0,98,0.00,,,0.00,0.000000,,2013-09-11 06:02:00,
2013-09-11 02:42:00,63.0,63.0,-100.00,WNW,302,1.0,2.0,99,0.00,,,0.00,0.000000,,2013-09-11 06:42:00,
2013-09-11 02:52:00,63.0,63.0,-100.00,WNW,302,1.0,2.0,99,0.00,,,0.00,0.000000,,2013-09-11 06:52:00,
2013-09-11 03:02:00,63.0,63.0,-100.00,WNW,302,1.0,2.0,99,0.00,,,0.00,0.000000,,2013-09-11 07:02:00,
2013-09-11 03:42:00,61.0,61.0,-100.00,SSW,196,1.0,3.0,99,0.00,,,0.00,0.000000,,2013-09-11 07:42:00,
2013-09-11 03:53:00,61.0,61.0,-100.00,SSW,196,1.0,3.0,99,0.00,,,0.00,0.000000,,2013-09-11 07:53:00,
2013-09-11 04:02:00,61.0,61.0,-100.00,SSW,196,1.0,3.0,99,0.00,,,0.00,0.000000,,2013-09-11 08:02:00,
2013-09-11 04:42:00,62.0,62.0,-100.00,South,188,1.0,3.0,99,0.00,,,0.00,0.000000,,2013-09-11 08:42:00,
2013-09-11 04:52:00,62.0,62.0,-100.00,South,188,1.0,3.0,99,0.00,,,0.00,0.000000,,2013-09-11 08:52:00,
2013-09-11 05:02:00,62.0,62.0,-100.00,South,188,1.0,3.0,99,0.00,,,0.00,0.000000,,2013-09-11 09:02:00,
2013-09-11 05:43:00,62.0,62.0,-100.00,NW,305,1.0,4.0,99,0.00,,,0.00,0.000000,,2013-09-11 09:43:00,
2013-09-11 05:53:00,62.0,62.0,-100.00,NW,305,1.0,4.0,99,0.00,,,0.00,0.000000,,2013-09-11 09:53:00,
2013-09-11 06:03:00,62.0,62.0,-100.00,NW,305,1.0,4.0,99,0.00,,,0.00,0.000000,,2013-09-11 10:03:00,
2013-09-11 06:43:00,61.0,61.0,-100.00,WSW,255,2.0,4.0,99,0.00,,,0.00,0.000000,,2013-09-11 10:43:00,
2013-09-11 06:53:00,61.0,61.0,-100.00,WSW,255,2.0,4.0,99,0.00,,,0.00,0.000000,,2013-09-11 10:53:00,
2013-09-11 07:03:00,61.0,61.0,-100.00,WSW,255,2.0,4.0,99,0.00,,,0.00,0.000000,,2013-09-11 11:03:00,
2013-09-11 07:42:00,62.0,62.0,-100.00,WSW,248,2.0,4.0,99,0.00,,,-99.99,0.000000,,2013-09-11 11:42:00,
2013-09-11 07:52:00,62.0,62.0,-100.00,WSW,248,2.0,4.0,99,0.00,,,-99.99,0.000000,,2013-09-11 11:52:00,
2013-09-11 08:01:00,62.0,62.0,-100.00,WSW,248,2.0,4.0,99,0.00,,,-99.99,0.000000,,2013-09-11 12:01:00,
2013-09-11 08:42:00,62.0,62.0,-100.00,WSW,242,2.0,4.0,99,0.00,,,-99.99,8.000000,,2013-09-11 12:42:00,
2013-09-11 08:52:00,62.0,62.0,-100.00,WSW,242,2.0,4.0,99,0.00,,,-99.99,8.000000,,2013-09-11 12:52:00,
2013-09-11 09:02:00,62.0,62.0,-100.00,WSW,242,2.0,4.0,99,0.00,,,-99.99,8.000000,,2013-09-11 13:02:00,
2013-09-11 09:42:00,63.0,63.0,-100.00,WNW,283,1.0,4.0,99,0.00,,,-99.99,54.000000,,2013-09-11 13:42:00,
2013-09-11 09:52:00,63.0,63.0,-100.00,WNW,283,1.0,4.0,99,0.00,,,-99.99,54.000000,,2013-09-11 13:52:00,
2013-09-11 10:02:00,63.0,63.0,-100.00,WNW,283,1.0,4.0,99,0.00,,,-99.99,54.000000,,2013-09-11 14:02:00,
2013-09-11 10:42:00,64.0,64.0,-100.00,WSW,246,2.0,3.0,99,0.00,,,0.00,82.000000,,2013-09-11 14:42:00,
2013-09-11 10:52:00,64.0,64.0,-100.00,WSW,246,2.0,3.0,99,0.00,,,0.00,82.000000,,2013-09-11 14:52:00,
2013-09-11 11:02:00,64.0,64.0,-100.00,WSW,246,2.0,3.0,99,0.00,,,0.00,82.000000,,2013-09-11 15:02:00,
2013-09-11 11:43:00,67.0,67.0,-100.00,ENE,77,2.0,4.0,99,0.01,,,0.01,163.000000,,2013-09-11 15:43:00,
2013-09-11 11:54:00,67.0,67.0,-100.00,ENE,77,2.0,4.0,99,0.01,,,0.01,163.000000,,2013-09-11 15:54:00,
2013-09-11 12:03:00,67.0,67.0,-100.00,ENE,77,2.0,4.0,99,0.01,,,0.01,163.000000,,2013-09-11 16:03:00,
2013-09-11 12:43:00,71.0,68.0,-100.00,ESE,102,3.0,8.0,89,0.00,,,0.01,267.000000,,2013-09-11 16:43:00,
2013-09-11 12:53:00,71.0,68.0,-100.00,ESE,102,3.0,8.0,89,0.00,,,0.01,267.000000,,2013-09-11 16:53:00,
2013-09-11 13:03:00,71.0,68.0,-100.00,ESE,102,3.0,8.0,89,0.00,,,0.01,267.000000,,2013-09-11 17:03:00,
2013-09-11 13:43:00,80.0,70.0,-100.00,East,96,3.0,7.0,72,0.00,,,0.01,750.000000,,2013-09-11 17:43:00,
2013-09-11 13:52:00,80.0,70.0,-100.00,East,96,3.0,7.0,72,0.00,,,0.01,750.000000,,2013-09-11 17:52:00,
2013-09-11 14:02:00,80.0,70.0,-100.00,East,96,3.0,7.0,72,0.00,,,0.01,750.000000,,2013-09-11 18:02:00,
2013-09-11 14:42:00,85.0,66.0,-100.00,NNE,28,2.0,7.0,54,0.00,,,-99.99,712.000000,,2013-09-11 18:42:00,
2013-09-11 14:52:00,85.0,66.0,-100.00,NNE,28,2.0,7.0,54,0.00,,,-99.99,712.000000,,2013-09-11 18:52:00,
2013-09-11 15:01:00,85.0,66.0,-100.00,NNE,28,2.0,7.0,54,0.00,,,-99.99,712.000000,,2013-09-11 19:01:00,
2013-09-11 15:42:00,85.0,66.0,-100.00,SE,128,3.0,9.0,53,0.00,,,0.01,584.000000,,2013-09-11 19:42:00,
2013-09-11 15:53:00,85.0,66.0,-100.00,SE,128,3.0,9.0,53,0.00,,,0.01,584.000000,,2013-09-11 19:53:00,
2013-09-11 16:02:00,85.0,66.0,-100.00,SE,128,3.0,9.0,53,0.00,,,0.01,584.000000,,2013-09-11 20:02:00,
2013-09-11 16:42:00,86.0,67.0,-100.00,SE,125,3.0,11.0,53,0.00,,,0.01,631.000000,,2013-09-11 20:42:00,
2013-09-11 16:52:00,86.0,67.0,-100.00,SE,125,3.0,11.0,53,0.00,,,0.01,631.000000,,2013-09-11 20:52:00,
2013-09-11 17:02:00,86.0,67.0,-100.00,SE,125,3.0,11.0,53,0.00,,,0.01,631.000000,,2013-09-11 21:02:00,
2013-09-11 17:05:00,84.0,64.0,-100.00,South,178,3.0,8.0,52,0.00,,,0.01,470.000000,,2013-09-11 21:05:00,
2013-09-11 17:44:00,84.0,64.0,-100.00,South,178,3.0,8.0,52,0.00,,,0.01,470.000000,,2013-09-11 21:44:00,
2013-09-11 17:54:00,84.0,64.0,-100.00,South,178,3.0,8.0,52,0.00,,,0.01,470.000000,,2013-09-11 21:54:00,
2013-09-11 18:43:00,85.0,68.0,-100.00,South,184,3.0,9.0,56,0.00,,,0.01,318.000000,,2013-09-11 22:43:00,
2013-09-11 18:54:00,85.0,68.0,-100.00,South,184,3.0,9.0,56,0.00,,,0.01,318.000000,,2013-09-11 22:54:00,
2013-09-11 19:03:00,85.0,68.0,-100.00,South,184,3.0,9.0,56,0.00,,,0.01,318.000000,,2013-09-11 23:03:00,
2013-09-11 19:42:00,77.0,66.0,-100.00,SW,229,2.0,6.0,68,0.00,,,0.01,89.000000,,2013-09-11 23:42:00,
2013-09-11 19:53:00,77.0,66.0,-100.00,SW,229,2.0,6.0,68,0.00,,,0.01,89.000000,,2013-09-11 23:53:00,
2013-09-11 20:01:00,77.0,66.0,-100.00,SW,229,2.0,6.0,68,0.00,,,0.01,89.000000,,2013-09-12 00:01:00,
2013-09-11 20:42:00,73.0,68.0,-100.00,WSW,244,3.0,5.0,84,0.00,,,0.01,16.000000,,2013-09-12 00:42:00,
2013-09-11 20:52:00,73.0,68.0,-100.00,WSW,244,3.0,5.0,84,0.00,,,0.01,16.000000,,2013-09-12 00:52:00,
2013-09-11 21:01:00,73.0,68.0,-100.00,WSW,244,3.0,5.0,84,0.00,,,0.01,16.000000,,2013-09-12 01:01:00,
2013-09-11 21:42:00,72.0,69.0,-100.00,NNE,21,3.0,9.0,89,0.00,,,0.01,0.000000,,2013-09-12 01:42:00,
2013-09-11 21:52:00,72.0,69.0,-100.00,NNE,21,3.0,9.0,89,0.00,,,0.01,0.000000,,2013-09-12 01:52:00,
2013-09-11 22:03:00,72.0,69.0,-100.00,NNE,21,3.0,9.0,89,0.00,,,0.01,0.000000,,2013-09-12 02:03:00,
2013-09-11 22:52:00,70.0,68.0,-100.00,West,269,3.0,6.0,94,0.31,,,0.32,0.000000,,2013-09-12 02:52:00,
2013-09-11 23:02:00,70.0,68.0,-100.00,West,269,3.0,6.0,94,0.31,,,0.32,0.000000,,2013-09-12 03:02:00,
2013-09-11 23:05:00,68.0,67.0,-100.00,North,9,1.0,6.0,98,0.20,,,0.52,0.000000,,2013-09-12 03:05:00,
2013-09-11 23:45:00,68.0,67.0,-100.00,North,9,1.0,6.0,98,0.20,,,0.52,0.000000,,2013-09-12 03:45:00,
2013-09-11 23:55:00,68.0,67.0,-100.00,North,9,1.0,6.0,98,0.20,,,0.52,0.000000,,2013-09-12 03:55:00,